This demonstration page uses our WeatherBlox Daily Observations layout. Learn more.

Left ArrowRight Arrow

39.01783, -85.05884

Hourly Observations for October 19, 2018

Temp ( °F °C ) Dew Point ( °F °C ) Humidity (%) Winds ( mph kmh ) Pressure ( in mb ) Visibility ( mi km ) Precip ( " mm )
12:52 am 00:52 Clear 40 4.4 34 1.1 79 79 S 3 6 30.37 1029 10 16 N/A
1:52 am 01:52 Clear 39 3.9 33 0.6 79 79 N N/A 30.37 1029 10 16 N/A
2:52 am 02:52 Clear 37 2.8 34 1.1 89 89 SSW 3 6 30.35 1028 9 14 N/A
3:52 am 03:52 Clear 37 2.8 34 1.1 89 89 N N/A 30.32 1027 10 16 N/A
4:52 am 04:52 Mostly Clear 36 2.2 33 0.6 89 89 N N/A 30.33 1027 10 16 N/A
5:52 am 05:52 Partly Cloudy 36 2.2 31 -0.6 82 82 N N/A 30.33 1027 10 16 N/A
6:52 am 06:52 Mostly Clear 34 1.1 31 -0.6 89 89 N N/A 30.32 1027 10 16 N/A
7:52 am 07:52 Mostly Cloudy with Patchy Fog 34 1.1 31 -0.6 89 89 N N/A 30.31 1026 7 11 N/A
8:52 am 08:52 Mostly Cloudy 34 1.1 33 0.6 97 97 S 5 7 30.29 1026 10 16 N/A
9:52 am 09:52 Mostly Cloudy 46 7.8 38 3.3 73 73 SSE 3 6 30.27 1025 10 16 N/A
10:52 am 10:52 Mostly Sunny 52 11.1 36 2.2 55 55 SSW 8 13 30.25 1025 10 16 N/A
11:52 am 11:52 Partly Cloudy 56 13.3 38 3.3 51 51 SSW 8 13 30.23 1024 10 16 N/A
12:52 pm 12:52 Mostly Cloudy 57 13.9 38 3.3 49 49 SW 13 20 30.18 1022 10 16 N/A
1:52 pm 13:52 Cloudy 57 13.9 39 3.9 51 51 SW 7 11 30.14 1021 10 16 N/A
2:52 pm 14:52 Cloudy 58 14.4 38 3.3 48 48 SW 6 9 30.09 1019 10 16 N/A
3:52 pm 15:52 Cloudy 57 13.9 40 4.4 53 53 SSW 8 13 30.04 1017 10 16 N/A
4:52 pm 16:52 Cloudy 56 13.3 44 6.7 65 65 S 7 11 30.02 1017 10 16 N/A
5:52 pm 17:52 Cloudy with Light Rain 56 13.3 43 6.1 62 62 SW 6 9 30.01 1016 10 16 N/A
6:52 pm 18:52 Cloudy with Light Rain 57 13.9 43 6.1 60 60 SW 8 13 30.00 1016 10 16 N/A
7:52 pm 19:52 Cloudy 57 13.9 40 4.4 53 53 SW 10 17 30.00 1016 10 16 N/A
8:52 pm 20:52 Cloudy 54 12.2 40 4.4 59 59 WSW 7 11 30.00 1016 10 16 N/A
9:52 pm 21:52 Cloudy with Light Rain 49 9.4 47 8.3 93 93 W 10 17 30.01 1016 4 6 0.05 1.27
10:25 pm 22:25 Cloudy with Light Rain 49 9.4 47 8.3 93 93 WSW 8 13 30.00 1016 6 10 0.03 0.76
10:52 pm 22:52 Cloudy 49 9.4 47 8.3 93 93 WSW 10 17 29.98 1015 10 16 0.04 1.02
11:14 pm 23:14 Cloudy with Mist and Fog 49 9.4 49 9.4 100 100 WSW 9 15 29.97 1015 4 6 N/A
11:16 pm 23:16 Cloudy with Mist and Fog 49 9.4 49 9.4 100 100 WSW 9 15 29.97 1015 5 8 N/A
11:52 pm 23:52 Cloudy 49 9.4 48 8.9 97 97 SW 10 17 29.96 1015 10 16 N/A

Powered by AerisWeather